Wind_Speed
14 13 13 13 13 11 9 8 8 8 9 11 15 19 21 22 23 24 27 29 29 28 28 28 27 26 26 26 27 27 28 28 26 24 22 21 19 19 19 19 18 18 18 18 17 16 16 16 16 16 16 17 16 16 16 17 17 16 15 14 14 14 14 14 14 16 17 17 16 16 16 16 16 16 16 16 16 16 17 16 16 15 15 14 14
17 14 13 13 13 12 10 7 8 10 10 10 12 15 18 19 20 22 25 29 30 30 30 29 28 28 29 30 30 29 28 28 27 25 24 23 21 20 20 20 19 18 19 19 18 17 17 17 17 17 18 18 18 17 17 18 18 16 16 15 15 15 15 15 16 16 16 17 16 16 17 17 17 17 18 18 18 19 19 20 19 18 17 16 16
21 20 19 17 14 13 12 10 8 10 12 12 11 12 14 15 17 19 23 27 30 31 31 31 30 31 31 30 29 28 27 28 27 26 25 23 22 22 22 21 21 20 19 19 19 19 19 18 18 18 19 19 19 18 19 19 18 17 17 17 17 16 16 17 17 17 17 17 17 16 17 17 17 18 18 18 19 20 21 21 21 21 19 18 18
19 19 19 20 17 13 12 12 10 9 11 13 13 12 12 13 14 16 20 24 28 30 32 32 32 32 31 29 29 29 30 30 28 27 26 24 23 23 23 24 23 22 20 20 20 20 20 19 18 19 20 20 19 19 20 20 19 18 18 19 18 18 18 18 19 19 18 18 18 18 18 18 18 18 18 18 19 20 21 21 21 21 20 19 19
16 15 15 16 15 13 11 12 12 12 12 13 14 13 12 12 13 14 16 20 22 25 30 33 33 32 31 30 29 29 31 31 30 30 30 27 25 24 25 25 24 23 21 21 21 21 21 21 20 21 21 21 20 20 21 20 20 19 19 19 19 19 20 20 20 20 20 20 19 19 18 18 18 19 19 19 19 19 20 20 20 20 20 20 20
14 13 13 13 12 11 11 11 12 14 14 13 15 15 13 13 14 15 16 19 20 21 24 29 32 32 31 30 29 29 30 30 29 30 32 29 26 25 26 26 25 23 22 22 22 22 23 23 22 22 22 22 21 22 22 22 21 20 20 20 20 21 21 21 21 21 21 21 20 20 19 19 20 20 20 20 19 19 19 20 20 20 20 20 20
14 13 12 11 11 10 10 10 11 14 15 14 15 16 15 14 14 15 16 19 22 21 21 24 28 29 29 29 28 28 29 29 29 29 30 30 28 27 27 26 26 25 24 23 23 23 23 24 23 23 23 22 22 23 24 24 24 23 22 21 21 21 21 21 22 22 22 22 22 21 20 20 20 19 19 19 19 19 20 21 21 21 21 21 21
15 13 12 11 11 10 11 10 10 12 14 14 14 15 16 14 13 13 14 16 19 20 20 22 25 27 29 28 28 27 28 27 27 27 29 30 30 28 26 26 26 26 25 25 24 24 24 25 24 24 23 23 24 25 26 26 26 25 24 23 22 22 21 21 22 23 23 23 23 22 22 20 19 18 19 19 19 19 21 22 21 20 21 21 21
15 14 12 10 11 11 12 11 10 11 13 15 15 15 16 15 15 14 13 14 16 18 20 22 23 26 28 28 28 28 27 26 27 28 30 31 31 30 29 28 27 26 26 26 26 26 26 26 26 24 24 24 25 26 26 27 27 26 25 24 23 23 22 22 22 22 23 24 23 22 21 19 18 18 19 20 20 20 21 21 19 19 21 21 20
16 15 13 11 11 12 12 12 11 10 12 15 17 17 16 16 17 17 15 14 14 16 19 21 23 25 26 27 28 28 28 29 30 31 32 32 32 33 32 31 30 28 27 27 27 27 27 27 27 26 25 25 25 26 26 27 27 26 25 24 24 24 24 23 23 22 23 24 23 22 21 18 18 19 19 19 20 20 20 19 18 19 20 20 19
16 15 14 13 13 12 12 13 13 12 12 15 17 18 18 17 17 18 18 17 16 17 18 20 22 24 25 26 26 27 28 30 32 33 33 32 33 34 34 33 33 31 30 30 29 28 28 28 28 28 26 25 25 25 26 26 25 24 24 25 25 25 24 25 24 23 23 23 22 22 20 18 18 19 19 18 19 19 18 18 18 18 19 19 18
16 14 15 14 15 15 14 13 14 15 15 15 17 19 19 19 18 18 18 18 18 19 19 20 21 23 25 25 24 25 27 29 32 33 33 32 32 34 35 35 35 34 33 32 32 31 29 29 29 29 28 27 26 25 26 25 24 24 25 25 26 26 25 26 26 24 23 23 22 21 20 18 19 19 18 18 18 18 17 17 18 18 18 17 16
16 14 14 15 15 16 17 15 14 15 17 18 19 20 21 20 19 20 20 20 20 21 21 22 23 24 25 26 24 23 24 26 30 32 32 32 32 35 36 36 35 36 35 34 35 34 32 31 31 30 30 29 28 27 26 25 24 25 26 27 26 25 25 26 26 24 23 23 22 20 19 19 19 19 18 18 18 17 17 17 18 18 17 16 15
18 16 15 15 16 16 19 19 17 16 17 19 20 20 21 20 20 21 21 22 22 22 23 24 25 25 26 27 27 25 24 25 27 29 31 31 33 36 38 38 38 38 38 37 37 36 35 33 32 31 31 31 30 29 27 26 26 26 27 27 25 25 25 26 26 24 23 23 22 20 20 20 19 18 18 18 18 18 18 18 19 18 18 17 17
18 17 16 16 16 16 18 21 21 19 18 17 19 21 21 20 20 21 21 21 20 21 22 23 24 24 24 25 26 26 26 26 27 28 30 31 33 35 38 39 39 39 40 39 37 36 36 35 34 32 32 33 32 30 29 27 26 26 27 26 25 24 25 26 26 24 23 23 22 20 20 20 19 18 19 19 19 19 19 18 18 18 18 18 18
17 17 16 16 17 17 17 19 21 23 21 18 17 20 22 21 20 20 20 20 19 20 21 22 22 23 22 22 24 26 27 28 29 30 31 32 33 35 37 38 39 40 40 39 38 37 36 36 35 34 33 34 32 31 30 29 27 27 27 26 25 24 24 24 24 23 23 22 21 20 20 20 19 19 20 19 19 18 18 17 18 18 18 18 18
17 17 16 16 17 18 18 18 20 23 24 22 18 19 21 21 20 20 19 19 19 19 19 20 21 21 20 19 21 22 24 27 29 30 32 33 34 35 35 35 36 37 38 38 37 37 36 36 36 35 35 35 33 32 31 30 28 28 27 25 24 24 23 22 22 22 22 21 20 19 19 20 20 20 20 19 18 18 17 17 18 19 19 19 18
18 17 17 17 17 18 19 19 19 21 24 25 21 19 20 20 20 20 19 18 17 17 18 18 18 18 18 18 19 20 21 24 26 28 30 32 34 35 34 34 33 34 36 37 37 37 37 37 36 36 36 35 33 33 32 30 29 28 26 25 24 23 22 21 21 21 21 21 20 19 19 20 20 19 19 18 18 19 19 19 19 19 19 19 19
19 18 18 18 18 18 19 19 19 19 20 23 23 21 20 20 20 21 20 18 18 18 19 18 18 17 16 16 17 17 18 20 22 24 26 29 32 33 34 34 33 34 35 36 36 37 38 37 36 37 37 34 33 33 32 30 29 27 26 25 24 22 21 20 21 21 21 20 20 20 20 19 19 18 18 18 19 19 19 19 19 19 19 19 20
18 19 19 19 19 19 19 19 19 18 18 19 21 22 21 20 20 21 21 20 19 19 19 19 18 17 15 14 13 14 15 17 19 21 23 26 29 31 32 33 33 33 33 34 35 35 36 36 37 37 35 33 32 32 31 30 28 27 26 24 23 21 20 21 21 21 20 20 20 20 20 19 19 19 18 18 18 18 18 18 18 19 19 19 20
17 18 20 20 20 19 19 19 19 19 18 18 20 21 21 20 20 20 20 20 19 19 18 18 17 17 15 14 13 13 14 15 17 19 22 24 27 29 30 30 32 33 34 34 34 35 34 34 35 35 33 32 31 30 30 30 28 27 25 24 23 22 22 22 22 21 20 20 21 20 19 19 19 18 18 17 18 17 18 18 19 19 19 19 19
16 17 19 21 20 19 18 19 19 19 19 18 18 19 19 20 20 20 20 19 19 19 18 18 17 16 15 14 13 13 12 13 14 17 19 21 23 24 25 26 28 30 33 34 34 34 34 31 30 31 31 30 29 29 30 29 27 26 25 23 23 23 22 23 23 22 21 20 20 19 18 18 17 17 16 17 17 17 18 18 18 18 17 17 17
16 16 18 20 20 19 18 17 18 18 19 19 18 18 17 18 19 19 19 18 18 19 19 19 18 16 14 14 12 10 10 10 11 12 14 16 17 19 20 21 22 25 29 32 31 31 30 28 27 28 29 28 28 29 29 28 26 25 24 23 23 23 23 22 22 21 20 19 18 17 17 17 16 16 16 16 17 17 17 17 16 15 15 14 14
16 16 18 19 20 19 18 16 16 17 18 19 19 18 17 17 18 19 18 18 18 19 19 20 19 16 14 13 12 11 10 10 10 10 11 13 14 15 16 18 18 18 20 23 24 23 24 24 24 25 27 28 29 29 28 26 25 25 24 24 23 23 22 21 20 19 18 18 17 16 16 16 15 15 15 16 16 16 15 14 14 13 12 12 11
16 16 17 19 19 18 17 16 15 16 17 18 19 18 18 18 18 18 18 19 20 19 19 20 19 17 15 14 14 13 11 11 11 11 11 12 13 14 14 14 14 14 13 16 18 18 19 20 21 22 25 26 27 27 26 26 25 25 24 23 22 21 20 19 18 18 17 17 17 16 16 15 14 14 14 14 14 14 13 13 12 12 11 11 10
16 16 17 18 18 18 17 15 15 15 16 17 18 17 17 18 18 18 18 20 21 20 19 19 19 18 16 16 15 13 13 13 13 13 12 12 13 14 12 10 10 11 10 10 14 16 18 19 19 20 23 24 24 24 25 25 25 24 23 22 20 19 19 18 18 17 17 17 17 17 16 14 13 13 13 12 12 12 12 12 11 10 10 10 10
16 16 17 17 18 18 16 15 15 15 14 15 16 15 15 16 18 20 20 20 22 21 19 19 19 17 17 16 15 13 13 13 14 14 13 13 13 13 12 9 7 7 6 7 11 15 17 18 19 19 21 22 22 22 23 22 22 22 20 19 19 19 19 19 18 17 16 16 16 16 14 13 13 13 12 11 11 11 11 10 9 9 9 8 8
17 16 17 17 17 17 15 14 14 15 14 13 14 14 14 14 16 19 20 21 22 21 20 19 18 17 17 16 14 13 12 10 12 14 14 12 12 12 10 8 7 6 5 4 8 12 15 16 17 18 19 19 20 21 20 19 20 19 19 18 19 19 19 19 18 17 16 16 15 13 13 13 13 11 10 10 10 10 9 9 8 8 7 6 5
16 16 16 17 17 16 15 14 14 15 14 12 12 13 13 13 14 17 20 21 22 21 20 18 16 16 16 15 14 13 12 10 11 13 13 13 13 12 11 10 10 8 5 4 6 10 12 13 14 16 18 18 19 19 18 18 19 19 19 18 19 19 19 18 17 16 15 14 13 13 13 13 11 10 10 10 10 9 9 8 7 6 5 4 3
15 16 16 16 16 16 15 14 14 14 14 13 12 13 13 14 15 17 20 21 22 21 20 18 17 16 15 14 13 13 12 11 12 12 12 13 14 13 13 14 13 9 7 7 8 9 11 12 13 14 15 16 16 16 17 17 18 17 17 17 17 17 17 16 15 15 14 14 14 14 13 12 11 10 10 10 9 9 8 7 6 5 4 3 3
15 15 15 15 15 15 15 15 15 15 14 14 13 12 13 15 17 19 20 21 20 20 19 17 17 17 15 13 12 12 12 13 13 12 12 14 14 14 14 15 14 11 9 9 10 12 13 13 13 13 14 14 15 15 16 16 16 16 16 16 16 16 15 15 15 15 14 14 14 13 12 11 11 11 10 10 9 8 7 6 5 4 4 3 2
14 14 14 14 14 14 14 14 14 15 15 14 13 12 12 14 17 18 18 18 18 18 17 17 17 16 14 12 11 11 13 14 14 13 13 14 15 15 15 16 15 14 12 12 12 13 14 14 14 15 15 15 15 15 15 15 16 16 16 16 17 17 16 16 16 15 14 14 14 13 12 11 11 11 10 9 8 7 7 6 5 4 3 3 3
14 13 13 14 13 13 13 13 13 13 13 13 13 12 11 13 15 16 16 16 16 17 17 17 17 16 14 12 11 11 14 15 14 14 14 15 15 15 15 15 15 14 13 12 12 12 13 14 14 14 15 15 16 16 16 16 16 17 17 17 17 17 17 17 16 15 15 14 14 13 12 12 11 10 10 8 7 6 5 5 4 4 5 5 5
14 13 13 13 12 12 13 12 12 11 11 12 12 12 10 11 13 14 14 14 14 15 17 18 18 16 14 12 11 12 14 15 15 15 15 15 15 14 13 12 12 12 12 12 11 11 12 12 13 13 13 14 15 16 17 17 17 17 18 17 17 16 16 15 15 14 14 13 12 11 11 11 10 9 8 7 6 5 5 6 7 7 8 8 8
14 13 13 12 12 12 12 12 12 12 11 11 11 11 10 10 11 12 13 12 13 14 16 17 17 15 13 13 13 15 17 17 16 16 15 15 15 14 13 12 12 11 11 11 12 12 12 12 12 13 13 14 15 17 17 18 18 17 16 16 15 14 14 13 13 13 12 11 11 11 10 10 9 8 7 7 6 7 7 8 9 10 11 11 11
14 13 12 12 12 12 12 12 12 11 10 10 10 10 10 10 11 11 12 12 13 14 15 16 16 14 13 13 16 17 18 18 16 15 15 15 15 14 13 13 12 12 12 11 11 12 13 14 13 13 13 14 15 16 17 17 17 17 16 15 14 13 12 12 11 11 11 10 10 10 10 9 8 8 7 7 8 9 10 11 12 13 13 14 14
14 13 12 12 12 12 12 12 11 10 9 9 9 9 9 9 10 11 12 13 13 14 15 15 15 15 13 13 16 18 18 18 17 15 15 16 16 15 14 14 14 13 13 12 12 13 14 15 15 13 13 14 15 15 16 16 16 15 15 14 13 11 11 12 12 11 11 11 11 10 10 9 9 8 8 9 10 11 13 14 15 16 16 17 17
13 13 12 12 11 11 11 10 10 9 9 8 8 8 7 7 9 10 11 12 12 14 16 16 16 15 14 14 17 20 21 20 17 16 15 16 16 16 16 15 15 15 15 14 14 14 15 16 16 16 15 15 15 15 15 15 15 14 14 14 13 12 12 13 13 12 12 11 11 10 10 10 9 9 9 10 12 13 15 16 17 17 18 19 19
14 12 11 11 10 10 10 9 10 10 9 8 8 7 7 7 8 10 12 12 13 14 16 18 18 17 15 15 17 20 21 19 17 16 16 16 17 17 17 17 16 17 17 16 15 15 15 15 15 16 16 15 15 15 15 14 14 14 14 14 15 14 14 14 13 12 11 10 10 10 11 11 11 11 11 12 14 15 15 16 17 17 19 19 20
13 12 10 10 10 10 9 9 8 8 9 9 9 8 7 7 9 11 12 13 14 14 16 19 19 18 16 15 15 16 17 17 17 16 16 16 18 18 18 18 18 18 17 17 17 16 15 14 13 13 13 14 14 13 13 12 13 14 14 14 15 14 13 12 11 10 10 10 11 12 13 13 14 14 15 15 14 14 15 15 17 17 17 18 19
13 12 10 9 9 10 9 8 7 7 8 10 10 10 9 9 10 11 13 14 16 17 18 20 21 22 20 18 16 15 15 15 16 16 16 17 19 20 19 19 18 17 17 16 16 15 13 12 12 12 12 11 11 10 10 10 10 12 13 13 13 12 11 10 10 10 11 12 13 14 14 14 15 16 16 15 14 14 15 16 16 16 16 17 18
13 11 10 9 9 9 9 8 6 6 7 8 10 11 12 12 12 12 13 15 18 19 20 22 24 24 22 20 19 17 15 13 13 15 16 18 19 19 18 16 14 12 11 11 10 10 9 9 10 10 10 10 9 9 9 9 8 9 11 12 12 12 12 12 12 12 13 14 15 15 15 15 15 15 15 15 16 17 17 17 17 17 17 17 17
11 10 9 8 8 8 8 7 6 6 6 7 9 11 13 14 13 12 13 16 18 18 19 21 22 21 18 16 16 15 12 10 11 12 14 16 17 17 15 12 11 10 9 9 8 8 8 8 8 7 7 7 9 9 9 9 8 7 8 10 12 13 13 13 13 13 14 15 16 16 17 17 17 17 18 18 19 20 20 19 19 19 19 19 18
10 9 7 7 7 7 7 8 8 7 7 7 9 10 12 12 11 10 11 13 13 14 14 15 17 18 16 14 13 11 8 8 9 11 12 13 13 12 11 11 11 10 10 10 9 8 7 7 7 7 6 7 8 8 8 8 8 9 10 11 13 14 15 15 15 15 15 15 16 16 17 18 19 20 20 21 22 22 21 21 21 21 21 21 20
10 9 7 6 7 7 7 7 8 7 6 6 7 8 9 9 7 6 6 7 9 11 13 14 14 15 14 13 12 11 10 11 12 12 11 11 11 10 10 10 10 10 9 9 8 7 6 5 6 7 7 7 9 10 10 10 11 12 13 15 16 16 16 16 16 16 17 18 18 18 18 19 20 21 21 21 21 21 21 22 23 23 23 23 22
10 9 7 6 6 7 7 7 7 6 6 6 5 6 7 6 5 4 5 5 5 8 12 14 15 15 15 13 12 13 13 14 14 13 11 11 11 10 9 10 11 11 10 9 8 8 7 6 6 6 6 7 8 10 12 13 14 15 16 17 17 17 17 16 16 17 18 20 21 21 21 22 23 23 23 22 21 22 22 23 25 25 24 23 23
9 8 7 6 6 6 6 7 7 6 6 5 5 5 6 6 4 4 6 6 6 7 11 14 14 13 13 14 14 16 17 17 15 12 11 11 11 10 8 8 9 10 10 10 11 13 13 12 11 11 12 12 12 13 15 15 15 15 16 16 16 16 16 16 18 19 20 21 22 23 23 24 24 24 23 23 23 23 24 26 27 26 24 23 23
8 6 6 6 6 5 6 6 6 6 5 5 5 6 7 7 6 5 6 7 8 9 11 13 13 12 11 12 15 18 19 17 13 10 10 11 12 12 11 10 10 10 10 11 13 14 14 12 12 13 15 15 16 17 17 17 17 17 17 17 17 17 18 18 20 21 21 22 23 24 25 24 24 23 23 23 23 23 24 25 26 25 23 23 24
7 5 5 5 5 5 5 5 5 5 5 5 6 6 7 8 8 7 6 7 8 9 10 12 12 12 11 12 14 16 17 15 12 11 11 11 13 13 14 14 13 13 13 13 13 13 11 9 9 10 11 12 13 14 14 15 16 17 18 18 19 19 20 21 22 23 23 24 24 24 24 24 23 22 22 23 23 23 23 23 23 22 22 23 23
6 4 3 3 3 3 4 4 4 4 4 5 5 5 6 7 8 7 6 6 6 7 8 9 10 10 11 12 12 13 14 14 13 11 11 11 12 12 13 14 14 14 13 13 12 11 10 10 11 13 14 15 16 17 18 19 20 21 21 21 22 22 23 23 24 24 25 25 25 25 25 24 24 23 22 22 23 23 23 23 23 22 23 23 24
5 2 2 2 2 2 1 2 3 3 3 4 4 3 5 7 7 7 6 7 7 7 8 9 10 11 12 12 12 12 12 11 11 11 10 11 11 12 13 13 13 14 13 12 11 10 11 12 13 16 18 20 21 23 24 24 24 24 23 24 24 24 24 25 25 25 25 25 25 25 24 24 23 23 22 22 23 23 24 24 24 23 24 24 24
Wind_Direction
301 305 308 306 300 303 312 298 268 245 234 230 228 226 225 227 231 234 231 226 226 230 234 237 239 241 240 239 238 237 234 228 223 226 231 231 231 235 237 236 239 243 247 248 248 246 245 247 247 250 254 256 255 253 251 251 252 255 258 262 265 266 266 262 254 248 250 253 254 255 254 252 251 249 249 252 255 256 257 258 257 255 257 259 259
297 300 308 314 308 298 296 292 272 252 239 233 234 234 233 233 235 240 239 232 227 228 231 234 236 238 240 239 238 237 236 233 227 223 226 231 231 231 235 237 236 238 242 246 248 247 246 245 246 249 253 254 253 252 251 251 250 252 254 256 259 261 263 264 259 252 251 254 255 256 258 257 253 250 249 249 251 253 256 259 259 257 256 259 260
296 294 293 300 307 302 290 281 274 260 245 235 235 239 243 243 244 246 244 238 235 234 234 234 235 238 240 240 240 241 240 240 237 228 222 225 229 231 234 237 237 235 238 243 246 247 246 245 246 249 253 255 254 253 254 255 256 256 257 256 254 254 255 259 260 258 254 254 255 257 259 258 255 252 252 252 253 255 256 257 258 259 260 261 262
306 301 295 291 292 296 291 279 269 259 245 232 229 235 243 248 251 252 248 242 242 244 243 240 239 239 241 242 243 244 243 242 242 238 227 220 224 231 233 235 237 237 237 240 243 244 245 245 246 249 252 254 253 254 255 259 262 262 262 261 260 259 257 256 256 257 256 256 257 258 258 259 258 258 258 257 257 258 258 258 259 260 261 262 262
315 312 307 298 287 283 283 277 267 259 247 229 219 219 227 238 245 248 247 244 245 249 249 247 244 243 243 246 248 247 246 245 245 244 238 228 223 229 234 235 236 237 237 237 238 241 244 246 246 248 251 253 253 254 255 257 259 261 263 265 266 265 264 260 256 254 254 255 255 256 257 258 259 260 261 260 260 261 262 262 262 263 263 264 263
317 312 310 307 294 278 272 270 262 257 253 239 222 215 215 223 233 239 243 244 244 247 251 250 248 246 248 251 253 252 249 247 246 246 248 245 234 229 234 238 237 236 236 236 237 240 244 247 247 248 251 253 254 255 256 256 256 256 257 260 262 263 264 265 263 259 256 256 255 254 254 254 255 257 260 262 263 265 267 266 265 264 264 264 263
312 310 307 307 300 282 270 267 258 250 250 246 232 219 215 220 229 236 239 241 240 242 247 250 248 248 250 252 253 253 250 248 245 243 248 252 246 236 234 238 240 239 237 237 239 239 242 245 247 247 250 252 254 256 258 259 258 256 254 255 258 262 263 265 266 265 263 261 259 257 254 252 253 256 260 264 268 270 270 267 264 262 262 263 262
305 302 301 302 299 284 270 268 262 250 244 239 228 215 212 216 223 230 234 235 235 237 243 248 247 248 250 251 251 251 251 251 250 247 247 249 248 245 240 238 239 240 239 238 239 239 241 242 244 247 250 253 255 257 258 259 260 259 256 254 255 258 259 261 263 264 265 264 262 259 257 255 255 258 263 267 269 268 265 263 262 263 263 263 262
305 296 289 289 291 282 270 264 262 257 244 234 226 218 211 211 214 219 226 228 228 231 239 245 247 247 250 250 249 248 250 252 253 251 248 245 244 245 246 243 241 240 240 240 239 240 240 240 242 246 250 253 256 257 257 257 257 255 254 254 255 256 256 256 258 261 262 262 261 259 258 259 260 261 263 264 264 263 262 263 263 263 263 263 262
306 296 284 275 275 279 275 263 256 256 244 233 231 226 216 211 212 214 217 218 218 223 233 241 246 247 248 248 247 246 248 250 248 247 245 242 241 242 244 245 244 243 243 242 241 241 240 240 241 244 247 251 253 255 256 255 254 253 253 256 259 259 259 258 256 257 257 257 258 258 259 261 262 261 260 260 260 260 262 264 263 261 262 263 262
306 297 286 272 263 267 275 269 257 250 241 234 232 228 219 214 212 212 214 216 217 219 227 236 242 245 246 246 246 243 242 243 244 245 245 244 242 241 240 242 244 244 245 245 242 241 242 243 244 245 246 247 249 252 253 253 253 252 251 254 257 259 259 258 256 254 254 254 254 255 258 260 260 260 260 260 259 258 258 260 260 261 263 263 260
305 298 288 276 262 257 264 271 264 251 240 233 230 227 223 221 218 216 217 219 221 223 227 232 237 240 242 244 243 240 237 236 238 243 245 245 244 241 238 240 242 243 244 245 243 240 241 243 246 248 249 248 247 248 249 250 250 249 250 251 253 255 256 255 254 252 251 252 251 252 255 256 257 259 260 259 257 257 256 257 258 259 261 260 255
304 300 291 282 271 259 255 261 266 259 246 237 232 229 228 229 229 229 228 229 231 232 234 236 237 238 239 240 240 238 235 233 234 238 242 243 243 241 239 240 242 243 244 244 243 240 240 241 244 247 249 248 247 246 246 247 247 247 250 251 251 253 256 255 253 251 250 249 249 249 250 251 252 256 258 257 257 258 257 256 257 259 260 258 254
299 300 294 287 279 268 258 254 257 260 255 247 242 239 237 236 237 235 234 235 239 242 242 241 240 239 239 240 241 239 238 236 236 238 240 241 242 242 242 242 243 243 244 244 243 242 242 243 243 244 247 247 246 244 244 246 247 248 250 250 249 250 252 252 251 249 248 249 248 246 246 247 249 252 255 255 256 257 256 256 257 257 257 256 256
294 295 295 290 283 277 267 258 254 255 258 256 249 246 246 245 246 244 240 239 243 246 246 242 240 241 242 243 243 241 240 238 238 240 241 242 243 243 244 244 243 243 244 244 243 240 241 243 243 242 243 245 245 245 245 246 248 249 251 251 250 248 246 247 248 247 245 245 245 244 244 246 247 249 252 254 255 256 256 256 257 257 257 257 257
290 290 291 290 286 281 275 268 259 253 254 258 254 248 246 246 249 252 252 251 249 246 242 239 238 241 243 244 244 242 240 239 240 242 244 245 246 245 245 245 244 244 244 243 241 238 236 239 240 240 240 242 244 246 247 247 247 248 250 252 254 252 246 244 245 246 247 246 244 242 243 246 248 249 251 254 256 257 256 255 257 258 259 260 260
288 285 283 284 285 283 278 273 266 256 252 254 259 255 248 245 245 248 253 258 255 249 244 240 239 240 242 244 246 244 240 239 240 242 245 246 246 245 245 244 244 242 240 238 236 234 234 236 239 239 239 239 241 243 246 247 246 247 248 251 253 251 246 244 245 247 248 247 245 242 243 247 250 251 252 254 255 257 258 257 259 260 262 263 264
288 281 277 276 278 279 278 274 270 264 256 253 256 257 252 249 247 247 251 253 249 246 246 244 241 242 243 244 246 244 241 240 241 241 243 244 245 244 244 244 241 238 236 236 235 234 234 236 238 239 238 238 239 241 244 245 246 246 246 248 250 248 244 245 248 248 246 244 243 243 244 247 248 249 250 252 255 258 260 261 263 265 267 267 267
290 282 277 274 272 274 276 275 272 272 265 257 253 254 255 253 249 248 249 246 238 235 238 242 244 244 242 240 240 240 241 242 243 244 244 244 244 244 244 244 242 239 237 239 239 238 238 237 237 237 238 239 241 242 244 246 245 244 245 246 247 246 244 245 246 244 242 240 239 239 241 244 245 247 250 254 257 261 263 266 267 268 269 268 268
290 283 278 275 273 272 274 275 274 274 273 263 252 252 257 255 249 247 246 242 236 233 233 238 241 239 234 232 235 238 241 245 248 251 252 252 250 248 246 245 244 242 241 241 241 241 240 238 238 238 237 238 241 242 243 243 242 241 242 243 242 242 243 244 242 239 238 237 237 239 241 244 246 249 253 257 261 264 267 268 268 268 268 269 270
288 280 275 274 273 272 273 275 274 273 274 267 254 251 254 252 246 245 243 237 234 232 231 232 231 228 229 233 237 240 243 248 255 259 261 261 258 253 250 248 245 243 241 241 241 241 240 238 237 238 238 237 238 239 239 238 237 238 240 239 238 239 240 240 239 237 236 238 239 241 244 246 249 251 254 258 262 264 266 267 267 268 270 272 274
285 277 274 273 273 274 274 275 276 274 273 270 259 251 250 248 244 243 240 235 234 234 231 225 222 223 229 234 235 238 244 251 257 260 262 262 259 253 249 246 245 244 241 239 238 237 237 236 234 234 235 234 234 235 236 235 235 237 239 237 235 236 235 235 236 236 236 239 242 244 247 249 251 253 255 257 260 263 264 266 267 269 271 272 272
285 277 274 274 274 274 275 276 277 275 274 272 264 253 248 246 242 240 235 231 233 234 230 224 220 222 228 231 231 232 240 250 257 260 263 262 256 250 246 243 246 247 242 238 237 235 232 231 229 229 229 229 230 230 231 231 233 236 238 236 233 232 230 231 234 236 239 243 244 247 250 251 251 253 254 256 258 259 260 262 265 267 268 268 269
287 278 274 274 274 274 273 274 275 274 274 273 267 256 247 242 240 240 235 226 225 229 228 224 220 220 223 225 224 223 229 243 256 263 266 262 253 248 249 249 251 250 236 223 224 230 230 226 225 225 223 222 224 225 225 226 229 233 235 235 232 229 228 231 234 236 240 243 245 248 250 250 251 251 251 251 253 254 255 258 261 263 264 266 267
287 279 275 274 274 273 273 272 272 273 274 273 269 261 250 242 238 241 239 228 220 223 227 223 219 218 219 219 221 225 229 239 251 259 263 262 256 250 251 252 251 248 227 201 200 214 221 217 215 217 217 217 219 220 222 225 227 227 229 230 229 229 231 235 237 236 237 240 243 245 246 247 248 248 245 243 244 247 251 255 258 261 264 266 266
289 282 277 274 273 272 272 271 270 271 273 273 272 267 256 246 241 242 242 232 222 220 222 220 219 219 219 218 222 229 233 239 251 257 257 258 257 251 249 250 246 241 230 208 203 211 213 209 209 214 218 219 220 220 220 221 222 223 225 227 229 231 234 237 237 235 235 236 238 239 241 243 242 239 235 234 236 240 245 249 253 256 259 261 264
294 288 282 277 273 271 270 269 268 269 270 272 273 268 258 249 244 241 239 233 226 221 218 217 219 221 221 220 223 228 233 242 256 260 254 251 251 248 246 246 237 222 216 214 215 217 215 211 210 213 218 221 221 220 218 216 216 220 223 224 227 229 232 233 234 233 232 231 232 235 236 234 231 229 228 230 233 236 239 242 245 247 249 252 258
297 292 287 281 277 272 270 269 267 266 265 267 268 262 251 246 244 240 235 233 229 225 223 222 223 222 220 221 225 229 230 242 257 256 248 241 241 241 239 225 198 186 189 203 207 206 206 206 208 209 212 215 215 215 214 214 215 218 221 222 224 227 229 230 231 231 230 229 228 226 222 220 221 223 225 228 230 231 232 234 236 237 239 241 244
297 295 290 285 281 275 270 266 265 265 263 261 262 256 244 241 243 237 231 231 232 231 230 230 228 225 221 222 231 238 237 241 252 248 238 232 232 231 218 196 184 187 202 209 204 198 194 196 202 204 206 208 210 212 213 215 218 222 223 222 223 224 225 227 227 226 224 220 214 209 210 213 217 219 219 220 222 224 224 224 226 227 226 223 220
298 295 292 288 283 277 270 264 262 263 262 258 256 253 244 239 240 237 234 237 239 237 235 233 231 229 225 224 235 245 244 244 248 242 230 227 229 227 216 205 205 216 223 214 209 206 200 199 202 204 207 210 211 215 218 219 220 222 222 221 221 220 220 219 217 214 210 204 202 204 207 209 210 211 211 210 212 214 212 208 206 205 202 200 199
299 295 293 292 287 277 270 266 263 264 266 261 255 254 246 239 238 240 241 243 243 238 234 235 235 234 232 230 236 244 247 248 246 238 228 225 225 225 224 222 225 236 238 222 210 205 202 202 203 205 210 213 213 215 218 218 217 216 214 213 211 208 205 202 199 199 199 200 202 204 204 203 204 206 204 201 200 199 196 192 190 190 189 193 201
301 296 294 295 290 278 269 266 264 266 271 268 262 258 252 243 241 243 244 243 240 234 231 233 237 237 237 236 233 236 246 253 249 237 229 227 225 225 227 231 237 244 243 228 213 204 201 201 202 204 207 209 209 210 212 210 208 205 201 199 197 194 192 193 193 193 195 197 199 199 197 196 198 199 196 194 192 188 186 187 188 194 205 216 230
304 299 294 293 288 275 263 261 263 266 271 273 269 263 257 250 248 249 249 245 241 236 232 231 234 236 237 235 231 234 245 253 253 243 234 231 230 228 228 231 238 241 235 223 212 206 203 201 201 203 204 204 202 201 198 195 193 192 192 192 191 191 192 193 193 192 192 194 194 193 192 190 190 191 192 192 191 192 199 208 219 231 242 249 255
304 300 295 292 285 272 261 257 259 260 265 271 270 263 255 250 249 250 250 246 241 236 231 232 234 235 233 232 234 244 250 251 249 245 240 235 233 230 226 225 228 231 227 216 203 195 192 191 192 194 195 196 196 192 188 185 185 187 190 192 190 190 192 192 191 190 191 191 190 190 191 192 190 191 195 199 206 219 235 246 251 255 260 264 268
304 301 297 293 285 273 263 258 258 257 258 265 267 259 249 241 237 240 244 245 239 231 227 230 233 231 227 224 226 238 249 250 244 241 239 235 232 229 223 216 212 212 212 205 192 185 181 181 183 184 184 188 191 189 187 185 183 183 187 189 188 188 189 189 189 190 189 187 187 189 194 198 199 202 209 218 230 243 253 260 264 266 269 272 276
305 301 295 288 281 271 262 261 264 263 259 262 266 260 247 233 227 229 234 239 237 229 223 225 226 221 220 221 222 231 246 252 245 238 234 229 227 225 218 209 200 196 198 196 191 186 182 177 174 176 181 187 191 191 189 186 183 181 182 183 183 186 189 189 190 191 191 192 195 200 206 211 216 223 232 243 252 258 264 269 273 275 277 278 279
306 301 292 286 281 270 260 259 265 267 263 262 265 260 245 228 218 218 223 229 231 226 221 219 216 211 214 218 220 229 246 253 247 238 229 222 219 216 209 201 194 190 190 190 190 189 186 178 172 175 185 192 194 193 191 189 186 183 180 177 176 181 189 196 200 202 203 205 208 213 218 223 230 239 248 258 266 272 275 279 280 281 282 282 281
308 303 293 287 282 274 262 256 258 259 257 257 256 251 241 223 211 212 217 220 219 218 217 215 211 209 212 213 217 229 244 250 245 236 226 218 212 207 201 198 194 188 184 183 186 190 191 187 182 183 187 190 191 192 193 191 188 185 183 181 180 185 195 205 210 213 216 217 219 225 230 234 242 251 260 268 275 278 280 282 284 284 285 285 285
313 307 297 287 280 276 269 262 260 256 248 242 239 236 230 217 208 210 215 216 214 213 214 212 210 212 215 217 224 235 243 244 238 231 223 214 206 200 197 196 194 188 183 181 184 188 192 194 194 193 191 190 190 192 195 197 196 195 194 194 196 199 204 209 212 214 219 224 229 236 242 248 254 261 267 272 276 278 280 283 285 286 287 289 290
316 308 300 288 277 272 268 265 264 257 245 238 235 231 226 218 212 212 213 210 207 208 210 209 207 209 213 219 226 232 234 232 229 224 218 210 203 198 196 196 193 190 187 186 187 189 192 195 199 200 199 198 197 198 202 208 212 213 214 215 215 215 214 214 218 224 231 240 246 251 257 261 263 265 267 268 269 272 277 281 283 284 286 289 291
318 306 298 288 276 270 268 268 266 257 248 243 241 240 236 226 218 216 215 209 204 204 206 205 204 205 207 210 214 218 219 219 219 218 212 206 202 200 200 200 197 194 194 194 193 192 193 195 199 203 205 206 206 207 211 219 226 231 234 235 236 236 234 235 241 246 251 254 257 259 262 265 267 269 269 269 270 275 279 281 281 283 286 291 294
322 310 300 292 284 275 269 266 262 255 250 246 244 245 245 239 231 226 221 215 210 209 210 209 207 205 204 203 204 209 213 214 216 217 213 209 206 205 205 204 201 200 202 203 201 200 201 203 209 213 216 219 222 224 227 234 240 245 248 250 251 252 252 251 253 257 260 263 265 266 265 265 266 268 270 274 278 280 280 278 278 282 288 294 295
323 315 302 295 289 278 268 264 260 255 251 242 237 239 243 244 244 243 237 230 223 217 216 215 210 205 203 200 200 203 207 209 211 214 212 209 208 207 205 204 201 200 204 206 205 209 213 215 218 223 228 235 241 242 240 240 240 240 243 248 251 252 253 254 258 263 268 273 276 277 276 275 275 276 278 281 283 282 280 279 282 286 292 297 300
318 310 300 290 282 271 263 257 252 251 250 243 238 239 243 247 254 261 263 257 243 227 222 224 217 209 208 208 201 196 194 195 199 203 204 204 204 205 205 206 205 206 210 210 207 206 209 211 215 222 228 236 242 240 234 232 237 239 240 246 253 258 259 260 262 267 273 278 280 280 280 279 279 281 283 284 286 287 289 291 293 293 294 298 302
315 304 296 286 274 265 256 247 241 243 249 250 248 247 246 251 258 259 262 271 259 234 226 228 224 217 216 214 205 198 197 197 196 196 193 188 187 190 198 205 208 209 210 208 202 194 187 185 197 213 224 231 235 235 234 236 243 246 246 249 255 261 262 262 265 270 276 280 283 283 283 282 282 283 285 286 288 289 289 290 291 291 291 293 296
320 303 291 281 268 257 253 248 244 248 256 260 256 245 237 241 250 232 216 231 249 235 224 221 217 213 214 212 205 203 208 208 203 198 193 189 188 191 199 209 216 217 217 216 211 208 208 209 209 215 225 233 237 240 242 243 243 243 244 246 252 258 263 268 273 278 281 282 283 284 285 287 286 285 285 285 286 287 286 285 285 285 285 285 287
322 302 286 275 260 248 247 249 247 251 261 262 249 231 221 220 224 210 195 194 200 208 213 215 214 211 211 209 205 207 213 213 205 197 198 201 203 204 208 214 219 221 223 224 224 223 225 230 232 232 234 239 242 246 249 248 244 242 244 247 253 260 268 275 279 281 280 280 280 281 283 285 285 284 283 282 283 284 285 284 283 281 280 281 286
318 298 277 264 253 244 246 250 248 249 255 251 234 214 205 208 212 206 190 185 185 188 197 207 213 212 210 208 208 212 219 219 210 202 207 214 216 218 220 222 225 228 226 221 217 215 215 219 226 228 230 234 238 242 243 243 243 245 249 254 259 266 272 276 278 278 278 278 279 280 281 282 280 279 278 277 278 281 283 284 284 283 282 285 290
314 287 263 255 250 247 252 258 253 240 234 232 221 204 200 207 212 206 191 185 184 183 187 197 204 209 214 217 217 218 222 222 213 203 206 214 219 222 224 226 229 233 232 222 214 210 211 218 228 231 230 231 234 237 240 242 246 251 256 260 265 269 273 275 277 277 277 278 278 278 278 278 277 275 275 275 276 279 281 282 283 285 286 287 289
321 283 255 247 245 240 246 262 265 246 222 216 211 203 205 209 205 190 173 163 163 170 180 187 195 205 212 213 211 211 213 214 212 210 212 216 219 222 224 224 224 224 223 219 215 216 223 232 241 245 248 249 252 255 258 260 261 262 264 265 267 270 272 273 274 275 276 276 277 276 277 277 277 277 276 276 275 276 277 279 280 282 284 285 286
339 293 236 227 235 235 230 259 278 264 218 196 186 188 201 202 192 179 172 162 153 156 168 176 186 198 200 192 188 190 195 200 209 216 217 218 218 217 214 212 211 210 210 213 219 226 234 242 250 257 260 261 261 262 263 263 263 263 264 265 267 269 271 273 274 275 275 275 275 276 277 278 278 277 277 276 276 277 278 280 281 281 282 283 283
Height
3152 3151 3150 3149 3148 3147 3146 3146 3146 3145 3145 3146 3147 3148 3148 3149 3151 3153 3154 3155 3156 3156 3159 3162 3165 3167 3168 3168 3169 3169 3171 3172 3172 3174 3176 3177 3178 3179 3180 3180 3181 3182 3182 3182 3182 3183 3183 3183 3183 3183 3183 3183 3183 3183 3183 3183 3183 3184 3184 3185 3185 3186 3186 3186 3186 3186 3186 3186 3186 3187 3187 3188 3188 3187 3188 3188 3188 3189 3189 3189 3189 3189 3188 3188 3188
3150 3149 3148 3147 3146 3145 3144 3144 3144 3144 3144 3145 3146 3146 3146 3147 3148 3150 3152 3154 3154 3154 3155 3158 3161 3163 3164 3165 3166 3167 3170 3171 3171 3171 3172 3175 3176 3177 3178 3178 3179 3179 3179 3180 3180 3180 3180 3181 3181 3181 3181 3181 3181 3181 3180 3180 3181 3182 3183 3183 3183 3183 3184 3184 3184 3184 3184 3184 3184 3185 3185 3185 3186 3185 3185 3186 3186 3186 3187 3186 3186 3186 3186 3186 3186
3147 3146 3146 3146 3145 3144 3142 3141 3141 3141 3142 3142 3143 3144 3144 3145 3146 3148 3150 3152 3153 3154 3154 3155 3157 3158 3159 3162 3164 3167 3168 3169 3171 3170 3169 3170 3173 3175 3175 3176 3176 3176 3177 3177 3178 3178 3178 3178 3179 3179 3179 3179 3179 3179 3179 3179 3179 3180 3181 3181 3181 3181 3181 3182 3182 3183 3183 3182 3182 3183 3183 3183 3183 3183 3183 3183 3183 3184 3184 3184 3184 3183 3184 3184 3184
3143 3143 3143 3143 3143 3142 3141 3139 3139 3139 3138 3138 3139 3140 3141 3142 3144 3145 3147 3149 3151 3153 3153 3154 3155 3155 3157 3159 3162 3164 3165 3166 3168 3169 3167 3166 3168 3172 3173 3173 3173 3174 3174 3175 3175 3175 3175 3176 3177 3177 3177 3177 3177 3177 3177 3178 3178 3179 3179 3179 3179 3179 3179 3179 3180 3180 3180 3180 3180 3180 3180 3180 3181 3181 3181 3181 3181 3181 3181 3181 3181 3181 3181 3182 3182
3141 3140 3139 3139 3140 3140 3139 3138 3137 3137 3136 3136 3136 3136 3138 3139 3140 3142 3143 3145 3147 3150 3151 3152 3153 3153 3154 3156 3158 3159 3161 3162 3164 3166 3167 3165 3164 3167 3170 3170 3171 3171 3171 3172 3172 3172 3173 3173 3174 3174 3174 3175 3175 3175 3175 3176 3176 3176 3177 3177 3177 3177 3178 3178 3177 3177 3178 3178 3178 3178 3178 3178 3178 3178 3178 3178 3178 3178 3179 3179 3179 3179 3179 3179 3180
3138 3138 3137 3137 3136 3137 3137 3136 3135 3135 3135 3135 3134 3134 3134 3135 3136 3138 3139 3141 3143 3145 3147 3149 3150 3151 3151 3152 3154 3155 3156 3158 3160 3162 3165 3165 3163 3163 3165 3167 3168 3168 3168 3169 3169 3169 3170 3170 3171 3172 3172 3172 3173 3173 3173 3173 3174 3174 3174 3174 3174 3175 3175 3175 3175 3175 3175 3176 3176 3176 3176 3176 3175 3176 3176 3176 3175 3176 3176 3176 3176 3176 3176 3176 3177
3136 3136 3135 3134 3134 3134 3133 3133 3133 3132 3133 3133 3133 3132 3132 3132 3133 3134 3135 3136 3138 3141 3143 3145 3146 3147 3148 3149 3150 3151 3152 3154 3156 3158 3160 3162 3162 3162 3162 3163 3164 3165 3165 3166 3166 3166 3167 3168 3168 3169 3169 3170 3170 3171 3171 3171 3171 3171 3171 3171 3171 3171 3172 3172 3172 3172 3172 3173 3173 3173 3173 3173 3173 3173 3173 3172 3173 3173 3173 3173 3173 3173 3173 3173 3174
3134 3133 3133 3132 3132 3131 3130 3130 3130 3130 3130 3130 3130 3130 3130 3130 3130 3131 3131 3132 3134 3136 3139 3141 3142 3143 3144 3145 3146 3147 3148 3150 3152 3154 3156 3157 3159 3160 3160 3160 3160 3161 3162 3162 3163 3163 3164 3165 3165 3166 3166 3167 3167 3167 3167 3168 3168 3168 3168 3168 3168 3168 3169 3169 3169 3169 3169 3170 3170 3170 3170 3170 3170 3170 3170 3169 3170 3170 3170 3170 3170 3171 3170 3171 3171
3132 3131 3131 3130 3129 3128 3127 3127 3127 3127 3127 3128 3128 3128 3128 3128 3128 3128 3128 3129 3130 3132 3134 3136 3138 3139 3140 3141 3142 3143 3144 3146 3149 3151 3151 3152 3153 3155 3155 3155 3156 3157 3158 3158 3159 3160 3161 3162 3162 3163 3164 3164 3164 3164 3164 3164 3164 3165 3165 3165 3165 3165 3166 3166 3166 3166 3166 3167 3167 3167 3167 3168 3168 3167 3167 3167 3167 3167 3167 3167 3168 3168 3168 3168 3168
3130 3129 3128 3128 3127 3126 3125 3124 3124 3123 3124 3125 3125 3125 3125 3125 3125 3125 3126 3126 3126 3128 3130 3132 3134 3135 3136 3137 3138 3139 3140 3142 3145 3146 3146 3147 3147 3148 3150 3151 3152 3153 3154 3154 3155 3156 3157 3158 3159 3160 3161 3161 3161 3160 3160 3160 3160 3162 3163 3163 3163 3163 3163 3163 3163 3163 3164 3164 3164 3164 3164 3165 3165 3165 3165 3165 3164 3164 3164 3165 3165 3165 3165 3165 3166
3127 3126 3125 3125 3124 3124 3123 3122 3121 3121 3121 3121 3122 3122 3122 3122 3122 3122 3123 3123 3123 3124 3125 3127 3129 3131 3132 3132 3133 3135 3136 3137 3139 3141 3141 3141 3142 3143 3145 3146 3147 3148 3149 3151 3152 3153 3154 3155 3156 3157 3157 3158 3158 3157 3157 3157 3157 3159 3159 3160 3159 3160 3160 3160 3160 3161 3161 3161 3162 3161 3162 3162 3163 3162 3162 3162 3162 3162 3163 3163 3163 3163 3162 3163 3163
3124 3124 3123 3122 3122 3121 3121 3120 3119 3118 3118 3118 3118 3118 3118 3119 3119 3119 3119 3120 3120 3121 3122 3123 3125 3126 3127 3128 3129 3130 3131 3133 3134 3135 3136 3136 3137 3139 3140 3142 3143 3144 3145 3146 3148 3149 3150 3152 3153 3154 3155 3155 3155 3154 3153 3154 3154 3155 3156 3156 3156 3156 3157 3157 3158 3158 3158 3158 3159 3159 3159 3160 3160 3160 3160 3160 3160 3160 3161 3161 3161 3160 3160 3160 3161
3122 3121 3120 3119 3119 3119 3118 3118 3117 3116 3115 3115 3115 3115 3115 3115 3115 3115 3116 3116 3116 3117 3118 3120 3121 3122 3123 3124 3125 3126 3127 3128 3129 3129 3130 3131 3133 3134 3135 3137 3138 3139 3140 3141 3143 3145 3146 3148 3149 3150 3152 3152 3151 3151 3151 3151 3151 3152 3152 3153 3153 3153 3153 3154 3155 3155 3155 3155 3156 3156 3157 3157 3157 3157 3158 3158 3158 3158 3158 3158 3158 3158 3158 3158 3159
3119 3119 3118 3117 3116 3116 3115 3115 3114 3113 3112 3112 3112 3112 3112 3112 3112 3111 3111 3112 3113 3114 3115 3116 3116 3118 3119 3120 3121 3122 3123 3123 3124 3124 3125 3126 3127 3129 3130 3132 3133 3134 3135 3137 3139 3141 3143 3144 3145 3147 3148 3148 3148 3148 3148 3148 3148 3148 3149 3150 3150 3150 3150 3151 3151 3151 3152 3153 3153 3153 3153 3154 3154 3155 3155 3155 3156 3155 3155 3155 3155 3156 3156 3157 3157
3116 3116 3115 3114 3113 3112 3112 3111 3111 3110 3110 3109 3110 3110 3110 3110 3110 3109 3109 3109 3109 3110 3111 3112 3113 3113 3115 3116 3117 3118 3119 3119 3120 3120 3121 3121 3122 3123 3124 3126 3128 3129 3130 3132 3134 3136 3138 3140 3141 3142 3143 3144 3145 3145 3145 3146 3145 3145 3146 3147 3148 3148 3148 3148 3148 3148 3149 3149 3149 3150 3150 3151 3151 3152 3152 3153 3153 3153 3153 3153 3153 3154 3154 3154 3155
3113 3113 3112 3111 3110 3109 3109 3108 3108 3107 3107 3107 3107 3107 3107 3107 3107 3107 3108 3108 3107 3107 3107 3107 3109 3110 3111 3112 3113 3114 3115 3116 3116 3116 3117 3117 3118 3118 3119 3121 3122 3124 3125 3127 3129 3131 3133 3134 3136 3137 3138 3140 3141 3142 3142 3143 3143 3142 3143 3144 3144 3145 3145 3145 3145 3145 3144 3145 3145 3146 3147 3148 3149 3149 3150 3150 3150 3150 3151 3151 3151 3151 3152 3152 3153
3110 3109 3109 3108 3107 3106 3106 3105 3104 3104 3104 3104 3104 3104 3104 3103 3103 3103 3104 3105 3106 3105 3105 3105 3106 3107 3108 3109 3110 3111 3112 3112 3112 3113 3113 3113 3113 3114 3115 3116 3117 3119 3120 3122 3124 3125 3127 3128 3130 3132 3133 3134 3137 3138 3138 3139 3139 3140 3140 3141 3141 3141 3142 3143 3143 3142 3142 3142 3143 3144 3145 3146 3146 3147 3148 3148 3148 3148 3148 3149 3149 3149 3149 3150 3150
3107 3106 3105 3104 3104 3103 3102 3101 3101 3100 3100 3101 3101 3102 3101 3101 3100 3100 3101 3102 3103 3103 3103 3104 3104 3104 3105 3106 3107 3108 3108 3109 3109 3109 3109 3109 3109 3110 3111 3112 3113 3114 3115 3117 3118 3120 3121 3123 3126 3127 3128 3130 3132 3133 3133 3134 3136 3137 3137 3138 3138 3138 3139 3140 3140 3140 3141 3141 3142 3142 3142 3143 3144 3145 3145 3145 3145 3146 3146 3147 3147 3147 3147 3148 3148
3104 3103 3102 3101 3101 3100 3099 3098 3098 3097 3097 3098 3098 3099 3099 3099 3099 3099 3099 3099 3099 3099 3100 3101 3102 3102 3102 3103 3104 3104 3105 3105 3105 3106 3106 3105 3105 3106 3107 3108 3109 3110 3111 3112 3113 3115 3117 3119 3121 3122 3123 3126 3127 3128 3129 3131 3132 3133 3134 3134 3135 3136 3136 3137 3137 3138 3138 3139 3139 3140 3140 3141 3141 3142 3143 3143 3143 3144 3144 3144 3144 3144 3145 3145 3145
3100 3100 3099 3098 3097 3097 3096 3096 3095 3095 3095 3095 3095 3096 3096 3096 3097 3097 3097 3097 3097 3097 3097 3098 3099 3099 3099 3100 3100 3101 3102 3102 3102 3102 3102 3102 3102 3102 3103 3104 3105 3107 3108 3108 3109 3110 3111 3114 3116 3117 3119 3121 3123 3124 3125 3127 3128 3130 3131 3131 3132 3133 3134 3134 3134 3135 3136 3136 3137 3137 3138 3139 3139 3140 3140 3141 3141 3142 3142 3142 3142 3142 3142 3142 3142
3096 3096 3095 3094 3094 3094 3093 3093 3093 3092 3092 3092 3092 3093 3093 3093 3094 3094 3094 3094 3095 3095 3095 3095 3096 3097 3097 3097 3097 3098 3098 3099 3099 3099 3098 3098 3098 3099 3100 3100 3101 3102 3103 3103 3104 3105 3106 3109 3111 3113 3115 3117 3119 3120 3121 3122 3124 3126 3128 3129 3129 3130 3131 3131 3132 3133 3134 3134 3135 3135 3136 3137 3137 3138 3138 3139 3139 3139 3139 3139 3139 3139 3139 3139 3139
3093 3092 3091 3090 3090 3090 3090 3090 3090 3090 3089 3089 3089 3090 3090 3090 3091 3091 3091 3091 3092 3093 3093 3093 3094 3095 3095 3095 3095 3095 3095 3096 3096 3096 3096 3095 3095 3095 3096 3096 3097 3097 3098 3098 3100 3101 3102 3105 3107 3109 3111 3113 3115 3116 3117 3119 3121 3123 3124 3126 3126 3127 3128 3129 3130 3130 3131 3132 3132 3133 3134 3135 3135 3136 3136 3136 3136 3137 3137 3136 3136 3137 3137 3137 3137
3089 3088 3088 3087 3087 3086 3087 3087 3087 3087 3087 3087 3087 3087 3087 3087 3087 3088 3088 3088 3089 3090 3091 3091 3092 3092 3093 3092 3092 3092 3093 3093 3093 3093 3093 3093 3093 3093 3093 3093 3093 3093 3093 3094 3096 3097 3099 3101 3103 3105 3107 3109 3111 3112 3114 3116 3118 3119 3121 3122 3123 3125 3126 3127 3127 3128 3129 3130 3130 3131 3132 3132 3133 3133 3134 3134 3134 3134 3134 3134 3134 3134 3135 3135 3135
3086 3085 3084 3083 3083 3083 3083 3083 3084 3084 3084 3084 3084 3084 3084 3084 3085 3085 3085 3086 3087 3088 3088 3089 3089 3090 3090 3090 3090 3090 3091 3091 3091 3091 3091 3091 3091 3091 3091 3091 3091 3090 3089 3090 3093 3095 3096 3098 3100 3102 3104 3106 3107 3109 3111 3113 3114 3116 3117 3119 3120 3122 3123 3124 3124 3125 3126 3127 3128 3129 3129 3130 3131 3131 3132 3132 3131 3131 3132 3132 3132 3133 3133 3133 3133
3084 3082 3081 3080 3080 3080 3080 3080 3080 3081 3081 3081 3081 3081 3081 3082 3082 3083 3083 3083 3084 3084 3085 3086 3087 3087 3088 3088 3088 3088 3088 3088 3088 3088 3089 3089 3089 3089 3089 3089 3088 3088 3086 3087 3089 3092 3094 3095 3097 3099 3101 3103 3105 3106 3108 3109 3111 3112 3114 3115 3117 3118 3120 3121 3122 3123 3124 3125 3125 3126 3127 3127 3128 3129 3129 3129 3129 3130 3130 3130 3131 3131 3131 3131 3131
3081 3080 3079 3078 3077 3077 3078 3078 3078 3078 3078 3078 3078 3079 3079 3079 3079 3080 3081 3081 3082 3081 3081 3082 3084 3085 3085 3085 3086 3086 3086 3086 3086 3086 3087 3087 3087 3087 3087 3087 3087 3086 3085 3085 3087 3089 3091 3093 3095 3097 3099 3100 3102 3104 3105 3106 3108 3110 3111 3113 3115 3116 3117 3118 3119 3120 3122 3122 3123 3124 3124 3125 3126 3126 3127 3127 3128 3128 3129 3129 3129 3129 3129 3129 3129
3079 3078 3076 3076 3075 3075 3075 3075 3075 3075 3076 3076 3076 3076 3076 3076 3077 3077 3078 3079 3079 3079 3078 3079 3080 3082 3083 3082 3083 3084 3084 3083 3084 3085 3085 3085 3085 3086 3086 3086 3085 3085 3085 3085 3086 3087 3089 3091 3093 3095 3096 3097 3099 3101 3102 3103 3105 3108 3110 3112 3113 3114 3115 3116 3117 3118 3119 3120 3121 3122 3122 3123 3124 3124 3125 3126 3126 3126 3127 3127 3127 3127 3127 3127 3127
3076 3075 3074 3073 3073 3072 3073 3073 3073 3073 3073 3073 3073 3073 3074 3074 3074 3075 3075 3076 3077 3076 3076 3077 3078 3079 3080 3080 3081 3082 3082 3081 3082 3083 3083 3083 3084 3085 3085 3085 3085 3085 3085 3085 3085 3086 3088 3089 3091 3092 3094 3096 3098 3100 3101 3102 3104 3107 3108 3109 3111 3112 3113 3114 3115 3116 3117 3118 3119 3120 3120 3121 3122 3122 3123 3124 3124 3124 3125 3125 3125 3125 3125 3125 3126
3074 3073 3072 3071 3070 3070 3070 3070 3070 3070 3070 3071 3071 3071 3071 3072 3072 3072 3073 3074 3074 3075 3075 3075 3076 3077 3078 3079 3079 3080 3081 3081 3080 3080 3081 3081 3082 3083 3084 3084 3084 3085 3085 3085 3085 3086 3087 3088 3090 3092 3094 3096 3098 3100 3101 3102 3103 3105 3106 3107 3109 3110 3111 3112 3113 3114 3115 3116 3117 3118 3118 3119 3120 3121 3121 3122 3122 3123 3123 3123 3124 3124 3124 3124 3124
3072 3071 3070 3069 3068 3068 3068 3068 3067 3067 3068 3068 3068 3068 3069 3069 3069 3070 3071 3072 3072 3073 3074 3074 3075 3076 3077 3078 3079 3080 3081 3081 3080 3079 3079 3080 3080 3082 3083 3084 3084 3084 3085 3085 3085 3086 3086 3088 3090 3091 3093 3095 3097 3099 3100 3101 3103 3104 3105 3106 3107 3108 3109 3111 3112 3113 3114 3115 3115 3116 3116 3117 3118 3119 3120 3120 3121 3121 3122 3122 3123 3123 3123 3123 3123
3070 3069 3067 3067 3066 3066 3066 3066 3066 3065 3065 3065 3065 3066 3066 3066 3067 3068 3069 3069 3070 3071 3072 3073 3074 3075 3076 3077 3078 3079 3079 3080 3079 3078 3078 3079 3079 3080 3081 3083 3083 3084 3084 3084 3085 3086 3086 3087 3089 3090 3092 3094 3096 3097 3099 3100 3102 3103 3104 3105 3106 3107 3109 3110 3111 3112 3113 3113 3114 3115 3116 3117 3117 3118 3119 3119 3120 3121 3121 3122 3122 3122 3123 3123 3123
3067 3066 3065 3065 3064 3064 3063 3064 3064 3064 3064 3064 3063 3063 3063 3064 3065 3066 3067 3068 3069 3070 3071 3072 3072 3073 3075 3076 3076 3077 3078 3079 3079 3078 3078 3078 3078 3078 3080 3081 3082 3083 3083 3083 3084 3085 3086 3087 3087 3089 3091 3093 3094 3096 3097 3099 3100 3102 3103 3104 3105 3107 3108 3109 3110 3110 3111 3112 3113 3114 3115 3116 3117 3118 3118 3119 3120 3120 3121 3121 3121 3122 3122 3122 3122
3065 3064 3063 3062 3062 3061 3061 3061 3061 3061 3062 3062 3062 3061 3061 3061 3063 3064 3065 3066 3067 3068 3069 3069 3070 3071 3073 3074 3074 3075 3076 3078 3078 3078 3077 3077 3077 3077 3078 3079 3080 3081 3082 3082 3083 3084 3085 3086 3087 3088 3090 3091 3093 3094 3096 3098 3099 3101 3102 3103 3104 3106 3107 3108 3108 3109 3110 3111 3112 3113 3114 3115 3116 3117 3118 3119 3119 3120 3120 3120 3120 3121 3121 3121 3121
3062 3062 3061 3061 3060 3060 3059 3059 3059 3059 3059 3059 3060 3060 3059 3059 3061 3062 3063 3064 3064 3065 3066 3067 3068 3070 3071 3072 3072 3073 3075 3076 3077 3077 3077 3077 3077 3077 3077 3078 3079 3080 3081 3082 3082 3083 3084 3085 3086 3087 3089 3090 3092 3093 3095 3096 3098 3100 3101 3102 3103 3105 3106 3107 3108 3109 3110 3111 3112 3113 3114 3115 3116 3117 3117 3118 3118 3118 3119 3119 3119 3119 3119 3119 3119
3060 3060 3060 3059 3058 3058 3057 3057 3057 3057 3057 3057 3057 3057 3057 3057 3058 3060 3060 3061 3061 3062 3063 3065 3066 3068 3069 3070 3071 3072 3073 3074 3076 3076 3075 3076 3076 3076 3076 3077 3077 3078 3079 3081 3081 3082 3083 3084 3085 3087 3088 3090 3091 3093 3094 3095 3097 3099 3100 3102 3103 3104 3105 3106 3107 3108 3109 3111 3112 3113 3113 3114 3115 3116 3116 3116 3117 3117 3117 3118 3118 3118 3118 3118 3118
3059 3058 3058 3056 3056 3055 3055 3055 3055 3055 3055 3055 3055 3055 3055 3055 3056 3057 3058 3058 3058 3059 3061 3062 3064 3065 3067 3068 3070 3071 3071 3072 3073 3073 3074 3074 3075 3075 3076 3076 3077 3077 3078 3079 3080 3081 3082 3083 3084 3086 3087 3089 3091 3092 3093 3094 3095 3097 3099 3101 3102 3103 3105 3106 3107 3108 3109 3110 3111 3112 3112 3113 3114 3114 3114 3115 3115 3116 3116 3116 3117 3116 3116 3116 3116
3057 3056 3055 3054 3053 3053 3053 3053 3053 3053 3054 3054 3054 3053 3053 3053 3054 3054 3055 3055 3056 3057 3058 3060 3061 3063 3064 3066 3067 3068 3069 3070 3071 3071 3072 3073 3073 3074 3075 3076 3076 3077 3077 3078 3079 3081 3082 3083 3084 3085 3086 3088 3089 3091 3092 3094 3095 3096 3098 3100 3102 3103 3105 3106 3107 3108 3108 3109 3110 3110 3111 3112 3112 3112 3113 3113 3114 3114 3115 3115 3115 3115 3115 3114 3114
3055 3054 3053 3052 3052 3051 3051 3051 3052 3052 3052 3052 3052 3051 3051 3051 3052 3052 3053 3053 3054 3055 3056 3058 3059 3061 3062 3063 3065 3066 3067 3068 3069 3069 3070 3071 3072 3073 3074 3075 3075 3075 3076 3077 3078 3080 3081 3082 3083 3085 3086 3088 3089 3091 3093 3095 3096 3097 3099 3100 3102 3103 3103 3104 3105 3106 3107 3108 3108 3109 3110 3110 3111 3111 3112 3112 3113 3113 3113 3113 3113 3113 3112 3112 3112
3053 3052 3051 3051 3050 3050 3050 3050 3050 3050 3050 3050 3050 3050 3050 3050 3050 3050 3051 3052 3053 3054 3055 3056 3057 3058 3060 3061 3063 3065 3066 3066 3067 3068 3068 3069 3070 3071 3072 3073 3074 3074 3075 3076 3077 3079 3081 3083 3084 3086 3088 3089 3091 3092 3094 3096 3097 3097 3098 3099 3100 3100 3101 3102 3103 3104 3105 3106 3107 3107 3108 3108 3109 3110 3110 3110 3110 3110 3110 3110 3110 3110 3110 3109 3109
3052 3051 3050 3049 3049 3048 3048 3048 3049 3048 3048 3048 3048 3048 3048 3048 3048 3048 3049 3049 3051 3052 3053 3054 3055 3057 3058 3059 3061 3063 3063 3064 3065 3066 3067 3068 3069 3069 3070 3071 3072 3073 3074 3076 3077 3079 3081 3083 3085 3087 3089 3090 3092 3093 3094 3096 3096 3097 3097 3098 3099 3100 3101 3102 3103 3104 3104 3105 3105 3106 3106 3107 3107 3107 3107 3107 3107 3107 3106 3106 3106 3106 3106 3106 3105
3050 3049 3048 3048 3047 3047 3047 3047 3047 3047 3047 3047 3047 3047 3047 3047 3046 3046 3046 3047 3048 3049 3050 3051 3052 3054 3055 3056 3058 3059 3061 3062 3063 3064 3065 3066 3067 3068 3069 3071 3072 3074 3075 3076 3078 3080 3082 3083 3085 3087 3088 3089 3091 3092 3093 3094 3095 3096 3097 3097 3098 3099 3101 3102 3102 3103 3104 3104 3104 3104 3104 3104 3104 3104 3104 3104 3103 3103 3103 3102 3102 3102 3102 3101 3101
3048 3047 3047 3047 3046 3046 3046 3046 3046 3046 3046 3045 3045 3046 3046 3045 3045 3044 3044 3045 3045 3046 3047 3048 3049 3051 3052 3053 3054 3056 3059 3060 3062 3063 3064 3065 3066 3068 3070 3072 3074 3075 3076 3077 3079 3080 3082 3083 3085 3086 3087 3088 3089 3090 3091 3092 3094 3095 3096 3096 3097 3097 3098 3099 3099 3100 3101 3101 3101 3101 3102 3101 3101 3101 3101 3101 3100 3100 3100 3099 3099 3098 3098 3097 3097
3047 3046 3046 3045 3045 3044 3044 3044 3044 3044 3044 3043 3043 3043 3044 3044 3044 3044 3044 3044 3044 3045 3046 3046 3048 3050 3052 3052 3054 3056 3058 3060 3062 3063 3064 3065 3066 3068 3070 3072 3074 3074 3075 3076 3078 3080 3081 3083 3084 3085 3086 3088 3088 3090 3091 3091 3092 3093 3094 3095 3095 3095 3096 3096 3096 3097 3097 3098 3098 3099 3099 3099 3098 3098 3098 3098 3097 3097 3096 3096 3096 3095 3095 3094 3093
3046 3045 3044 3044 3043 3043 3043 3042 3042 3042 3042 3042 3042 3042 3043 3043 3044 3044 3045 3045 3046 3047 3047 3048 3049 3051 3053 3054 3056 3058 3059 3060 3061 3062 3063 3064 3066 3068 3069 3071 3072 3073 3074 3076 3078 3079 3081 3082 3083 3084 3086 3087 3088 3089 3089 3090 3091 3091 3092 3093 3093 3093 3094 3094 3094 3094 3095 3095 3095 3096 3096 3096 3096 3096 3095 3095 3094 3093 3093 3092 3092 3091 3091 3090 3090
3044 3043 3043 3042 3042 3042 3041 3041 3041 3041 3040 3040 3041 3041 3042 3042 3043 3044 3044 3045 3046 3047 3048 3049 3051 3052 3053 3054 3056 3058 3058 3059 3060 3061 3062 3064 3066 3067 3068 3070 3071 3073 3074 3076 3077 3079 3080 3081 3082 3083 3085 3086 3087 3088 3088 3089 3089 3090 3090 3090 3091 3091 3092 3092 3092 3092 3092 3092 3092 3093 3093 3093 3093 3093 3092 3091 3091 3090 3089 3089 3088 3088 3087 3086 3086
3043 3042 3041 3041 3041 3041 3040 3040 3040 3040 3040 3040 3041 3041 3041 3042 3042 3042 3043 3043 3044 3046 3047 3048 3050 3051 3052 3054 3055 3057 3057 3057 3058 3059 3062 3064 3065 3067 3068 3070 3071 3072 3073 3075 3076 3078 3079 3080 3081 3083 3084 3085 3086 3087 3087 3087 3088 3088 3088 3089 3089 3089 3089 3089 3089 3089 3089 3089 3089 3089 3089 3089 3089 3089 3088 3088 3087 3086 3086 3085 3085 3084 3084 3083 3082
3041 3041 3040 3040 3040 3040 3040 3039 3039 3039 3040 3040 3040 3040 3040 3041 3041 3041 3041 3042 3043 3044 3046 3047 3048 3050 3051 3053 3054 3055 3055 3055 3056 3058 3061 3063 3064 3066 3068 3069 3070 3072 3073 3074 3075 3077 3078 3079 3080 3081 3083 3084 3085 3085 3086 3086 3086 3086 3087 3087 3087 3087 3087 3087 3087 3087 3086 3086 3086 3086 3086 3086 3085 3085 3084 3083 3083 3083 3083 3082 3081 3081 3080 3080 3079
3040 3039 3039 3039 3039 3039 3039 3039 3039 3039 3039 3039 3039 3039 3040 3040 3040 3040 3041 3041 3042 3043 3044 3046 3048 3049 3051 3052 3053 3053 3053 3054 3056 3058 3060 3061 3063 3065 3066 3067 3069 3071 3072 3073 3074 3075 3077 3078 3079 3080 3081 3082 3083 3083 3084 3084 3084 3084 3085 3085 3085 3085 3085 3084 3084 3084 3084 3083 3083 3083 3083 3082 3082 3081 3080 3080 3079 3079 3079 3078 3078 3077 3077 3077 3076
3038 3038 3038 3038 3038 3038 3038 3038 3038 3038 3038 3038 3038 3038 3039 3039 3040 3040 3040 3041 3041 3042 3044 3045 3047 3049 3050 3052 3052 3053 3054 3055 3056 3057 3058 3060 3061 3063 3064 3066 3067 3068 3069 3071 3072 3073 3074 3076 3077 3078 3079 3079 3080 3081 3081 3082 3082 3082 3082 3082 3082 3082 3082 3081 3081 3081 3080 3080 3080 3079 3079 3079 3078 3078 3077 3076 3076 3075 3075 3075 3074 3074 3074 3073 3073
3037 3037 3037 3038 3038 3038 3038 3038 3038 3038 3038 3038 3038 3038 3039 3039 3039 3039 3040 3040 3041 3042 3043 3044 3046 3047 3048 3049 3050 3051 3052 3053 3053 3054 3056 3058 3059 3061 3062 3063 3064 3065 3067 3068 3070 3071 3072 3073 3075 3076 3076 3077 3078 3078 3079 3079 3079 3080 3080 3080 3079 3079 3079 3078 3078 3078 3077 3077 3076 3076 3075 3074 3074 3074 3074 3073 3073 3072 3072 3071 3071 3070 3070 3069 3069
3037 3037 3037 3038 3038 3038 3038 3038 3038 3037 3038 3038 3038 3038 3038 3039 3039 3039 3040 3041 3041 3042 3043 3044 3044 3045 3046 3047 3048 3050 3051 3052 3052 3053 3054 3056 3058 3059 3061 3062 3063 3063 3064 3065 3067 3068 3070 3071 3072 3073 3074 3074 3075 3075 3075 3075 3076 3076 3076 3076 3076 3076 3075 3075 3074 3074 3073 3073 3072 3072 3071 3071 3070 3070 3070 3070 3069 3069 3068 3068 3067 3067 3067 3066 3066